#timestamp,LO_Frequency,Hit,StdDev 
1520755215.8,286046998.1,N
1520755235.6,286046998.2,N
1520755255.5,286046998.1,N
1520755275.3,286047001.0,N
1520755295.1,286047000.7,N
1520755315.9,286047005.3,Y
1520755335.7,286047013.4,P
1520755355.6,286047009.6,N
1520755375.4,286047008.4,N
1520755395.2,286047004.6,N
1520755415.1,286047004.2,N
1520755416.0,286047004.2,N
1520755435.8,286047002.7,N
1520755455.7,286047002.3,N
1520755475.5,286047000.2,N
1520755495.3,286047002.1,N
1520755515.2,286047002.2,N
1520755535.0,286047004.2,N
1520755535.9,286047004.2,N
1520755555.7,286047003.8,N
1520755575.6,286047001.9,N
1520755595.4,286047002.7,N
1520755615.3,286047000.5,N
1520755635.1,286047000.7,N
1520755636.0,286047000.7,N
1520755655.8,286047001.1,N
1520755675.7,286046998.2,N
1520755695.5,286046999.0,N
1520755715.4,286046998.5,N
1520755735.2,286046998.7,N
1520755755.0,286046999.4,N
1520755756.0,286046999.4,N
1520755775.8,286046996.8,N
1520755795.6,286046999.2,N
1520755815.5,286046999.6,N
1520755835.3,286046999.1,N
1520755855.1,286046999.3,N
1520755875.9,286046998.9,N
1520755895.7,286046998.7,N
1520755915.6,286046999.1,N
1520755935.4,286046999.5,N
1520755955.3,286046998.7,N
1520755975.1,286046999.5,N
1520755995.9,286046998.7,N
1520756015.7,286046998.7,N
1520756035.5,286046999.3,N
1520756055.4,286046998.7,N
1520756075.2,286046999.4,N
1520756095.0,286046998.7,N
1520756095.9,286046998.7,N
1520756115.8,286046998.5,N
1520756135.6,286046998.7,N
1520756155.5,286046998.3,N
1520756175.3,286046999.1,N
1520756195.1,286046999.1,N
1520756215.9,286046999.4,N
1520756235.7,286046999.6,N
1520756255.5,286046997.1,Y
1520756275.4,286046996.8,P
1520756295.2,286046999.6,N
1520756315.1,286046999.5,N
1520756316.0,286046999.5,N
1520756335.8,286046999.4,N
1520756355.7,286046998.9,N
1520756375.5,286046999.1,N
1520756395.3,286046998.8,N
1520756415.2,286047000.8,N
1520756435.0,286047000.4,N
1520756435.9,286047000.4,N
1520756455.7,286047000.9,N
1520756475.6,286047000.3,N
1520756495.4,286047000.7,N
1520756515.3,286046998.3,N
1520756535.1,286046998.3,N
1520756536.0,286046998.3,N
1520756555.8,286046998.6,N
1520756575.7,286046998.3,N
1520756595.5,286046998.6,N
1520756615.3,286047000.7,N
1520756635.2,286046998.6,N
1520756655.0,286046998.9,N
1520756655.9,286046998.9,N
1520756675.8,286047000.7,N
1520756695.6,286046998.8,N
1520756715.4,286046999.3,N
1520756735.3,286046998.9,N
1520756755.1,286046998.5,N
1520756775.9,286047000.7,N
1520756795.7,286046998.9,N
1520756815.5,286046998.9,N
1520756835.4,286046998.7,N
1520756855.2,286046998.1,N
1520756875.0,286046998.9,N
1520756875.9,286046998.9,N
1520756895.8,286046998.2,N
1520756915.7,286046998.1,N
1520756935.5,286047001.0,N
1520756955.3,286047000.9,N
1520756975.2,286047001.1,N
1520756995.0,286047000.2,N
1520756995.9,286047000.2,N
1520757015.8,286047001.2,N
1520757035.6,286046998.5,N
1520757055.5,286046998.3,N
1520757075.3,286046998.1,N
1520757095.1,286047000.7,N
1520757115.9,286046998.7,N
1520757135.7,286046998.6,N
1520757155.5,286046998.7,N
1520757175.4,286046998.1,N
1520757195.2,286047000.7,N
1520757215.1,286047000.6,N
1520757216.0,286047000.6,N
1520757235.8,286047000.6,N
1520757255.6,286047000.6,N
1520757275.5,286047000.6,N
1520757295.3,286046999.9,N
1520757315.2,286047000.0,N
1520757335.9,286047001.0,N
1520757355.7,286046998.5,N
1520757375.6,286046998.3,N
1520757395.4,286046998.3,N
1520757415.3,286046998.1,N
1520757435.1,286046998.1,N
1520757436.0,286046998.1,N
1520757455.8,286046998.5,N
1520757475.7,286046998.1,N
1520757495.5,286046998.1,N
1520757515.3,286046998.5,N
1520757535.2,286046998.6,N
1520757555.0,286047000.7,N
1520757555.9,286047000.7,N
1520757575.8,286046998.2,N
1520757595.6,286047000.8,N
1520757615.4,286047000.6,N
1520757635.3,286046998.4,N
1520757655.1,286046999.1,N
1520757675.8,286046998.6,N
1520757695.7,286046999.2,N
1520757715.5,286046999.4,N
1520757735.4,286046997.2,N
1520757755.2,286046997.2,N
1520757775.0,286046997.2,N
1520757775.9,286046997.2,N
1520757795.8,286046999.2,N
1520757815.6,286046999.1,N
1520757835.5,286046999.5,N
1520757855.3,286046999.1,N
1520757875.1,286046998.9,N
1520757895.9,286046998.4,N
1520757915.7,286046998.7,N
1520757935.6,286046998.3,N
1520757955.4,286046999.3,N
1520757975.3,286046998.9,N
1520757995.1,286047001.2,N
1520757996.0,286047001.2,N
1520758015.8,286046999.0,N
1520758035.7,286046999.4,N
1520758055.5,286046999.3,N
1520758075.3,286046999.0,N
1520758095.2,286046999.3,N
1520758115.0,286046998.9,N
1520758115.9,286046998.9,N
1520758135.8,286046998.7,N
1520758155.6,286046996.5,Y
1520758175.4,286046998.1,P
1520758195.3,286047000.7,N
1520758215.1,286047001.1,N
1520758235.9,286046998.1,N
1520758255.7,286047000.8,N
1520758275.5,286047001.0,N
1520758295.4,286047000.2,N
1520758315.2,286046999.9,N
1520758335.1,286047000.3,N
1520758336.0,286047000.3,N
1520758355.8,286047000.9,N
1520758375.6,286047000.7,N
1520758395.5,286047001.1,N
1520758415.3,286047001.1,N
1520758435.1,286046998.5,N
1520758455.9,286047001.2,N
1520758475.7,286047000.7,N
1520758495.6,286047000.9,N
1520758515.4,286047000.1,N
1520758535.2,286047000.9,N
1520758555.1,286047000.5,N
1520758556.0,286047000.5,N
1520758575.8,286047001.0,N
1520758595.6,286047001.0,N
1520758615.5,286047001.1,N
1520758635.3,286047000.3,N
1520758655.2,286047000.6,N
1520758675.9,286047000.6,N
1520758695.7,286047000.0,N
1520758715.6,286047001.0,N
1520758735.4,286047000.5,N
1520758755.2,286046998.5,N
1520758775.1,286047001.1,N
1520758776.0,286047001.1,N
1520758795.8,286047000.5,N
